This is the latest recevied weather packets stored in our database for station/object W4GAP. If no packets are shown the sender has not sent any weather packets the latest 10 day(s).
| Time | Temp. | Humidity | Pressure | Rain* | Wind** | Luminosity | Snow |
|---|---|---|---|---|---|---|---|
| 1778195322 | 17.78° C | 79% | 1010 hPa | 0 mm | - | 10 W/m² | - |
| 1778195019 | 17.78° C | 79% | 1010.1 hPa | 0 mm | - | 7 W/m² | - |
| 1778194719 | 17.78° C | 78% | 1010.1 hPa | 0 mm | - | 10 W/m² | - |
| 1778194415 | 18.33° C | 79% | 1010 hPa | 0 mm | - | 8 W/m² | - |
| 1778194112 | 17.78° C | 79% | 1010.1 hPa | 0 mm | - | 19 W/m² | - |
| 1778193808 | 18.33° C | 80% | 1009.9 hPa | 0 mm | - | 11 W/m² | - |
| 1778193504 | 18.33° C | 79% | 1010 hPa | 0 mm | - | 15 W/m² | - |
| 1778193201 | 18.33° C | 79% | 1010 hPa | 0 mm | - | 14 W/m² | - |
| 1778192898 | 18.33° C | 77% | 1009.7 hPa | 0 mm | - | 27 W/m² | - |
| 1778192594 | 18.89° C | 78% | 1009.6 hPa | 0 mm | - | 27 W/m² | - |
| 1778192292 | 18.89° C | 78% | 1010 hPa | 0 mm | - | 24 W/m² | - |
| 1778191988 | 18.89° C | 79% | 1009.7 hPa | 0 mm | - | 32 W/m² | - |
| 1778191684 | 18.33° C | 79% | 1009.8 hPa | 0 mm | - | 30 W/m² | - |
| 1778191383 | 18.33° C | 81% | 1009.8 hPa | 0 mm | - | 33 W/m² | - |
| 1778191078 | 18.33° C | 81% | 1009.7 hPa | 0 mm | - | 43 W/m² | - |
| 1778190776 | 18.33° C | 80% | 1009.6 hPa | 0 mm | - | 23 W/m² | - |
| 1778190473 | 18.89° C | 79% | 1009.8 hPa | 0 mm | - | 18 W/m² | - |
| 1778190170 | 18.33° C | 80% | 1009.5 hPa | 0 mm | - | 28 W/m² | - |
| 1778189865 | 18.33° C | 80% | 1009.9 hPa | 0 mm | - | 37 W/m² | - |
| 1778189563 | 18.33° C | 78% | 1009.5 hPa | 0 mm | - | 34 W/m² | - |
| 1778189259 | 18.33° C | 80% | 1009.4 hPa | 0 mm | - | 45 W/m² | - |
| 1778188955 | 18.33° C | 80% | 1009.2 hPa | 0 mm | - | 40 W/m² | - |
| 1778188652 | 18.33° C | 81% | 1009.2 hPa | 0 mm | - | 48 W/m² | - |
| 1778188348 | 18.89° C | 80% | 1009.2 hPa | 0 mm | - | 27 W/m² | - |
| 1778188045 | 18.33° C | 80% | 1009.2 hPa | 0 mm | - | 39 W/m² | - |
* Rain latest hour (hover to see other rain measurements)
** Current wind speed in m/s (hover to see current wind gust speed)